| time (UTC) | temp F | wind direction | speed knots | gust knots | rain 1hr in | rain 24hr in | rain mn in | humidity % | barometer mb |
| 20260502210017 | 61 | 308 | 6.1 | 10.4 | 0.00 | 0.00 | 0.00 | 38 | 1011.3 |
| 20260502205018 | 61 | 308 | 5.2 | 11.3 | 0.00 | 0.00 | 0.00 | 37 | 1011.4 |
| 20260502204018 | 62 | 307 | 5.2 | 10.4 | 0.00 | 0.00 | 0.00 | 37 | 1011.4 |
| 20260502203017 | 63 | 306 | 4.3 | 7.0 | 0.00 | 0.00 | 0.00 | 37 | 1011.5 |
| 20260502202018 | 65 | 301 | 2.6 | 5.2 | 0.00 | 0.00 | 0.00 | 35 | 1011.5 |
| 20260502201018 | 64 | 309 | 2.6 | 6.1 | 0.00 | 0.00 | 0.00 | 35 | 1011.4 |
| 20260502200018 | 64 | 301 | 2.6 | 6.1 | 0.00 | 0.00 | 0.00 | 35 | 1011.5 |
| 20260502195018 | 65 | 290 | 4.3 | 7.8 | 0.00 | 0.00 | 0.00 | 35 | 1011.7 |
| 20260502194039 | 66 | 304 | 3.5 | 9.6 | 0.00 | 0.00 | 0.00 | 35 | 1011.7 |
| 20260502193019 | 65 | 312 | 3.5 | 7.0 | 0.00 | 0.00 | 0.00 | 35 | 1011.7 |
| 20260502192015 | 65 | 284 | 3.5 | 11.3 | 0.00 | 0.00 | 0.00 | 37 | 1011.6 |
| 20260502191056 | 65 | 299 | 4.3 | 7.8 | 0.00 | 0.00 | 0.00 | 37 | 1011.8 |
| 20260502190016 | 64 | 309 | 3.5 | 9.6 | 0.00 | 0.00 | 0.00 | 38 | 1011.9 |
| 20260502185016 | 62 | 305 | 2.6 | 7.8 | 0.00 | 0.00 | 0.00 | 39 | 1012.1 |
| 20260502184037 | 63 | 307 | 4.3 | 10.4 | 0.00 | 0.00 | 0.00 | 38 | 1012.2 |
| 20260502183016 | 64 | 329 | 3.5 | 8.7 | 0.00 | 0.00 | 0.00 | 38 | 1012.4 |
| 20260502182016 | 64 | 310 | 3.5 | 7.0 | 0.00 | 0.00 | 0.00 | 38 | 1012.4 |
| 20260502181017 | 62 | 308 | 3.5 | 7.0 | 0.00 | 0.00 | 0.00 | 39 | 1012.5 |
| 20260502164018 | 59 | 316 | 4.3 | 8.7 | 0.00 | 0.00 | 0.00 | 42 | 1014.1 |
| 20260502163018 | 59 | 301 | 4.3 | 8.7 | 0.00 | 0.00 | 0.00 | 43 | 1014.3 |
| 20260502162018 | 58 | 301 | 2.6 | 7.0 | 0.00 | 0.00 | 0.00 | 45 | 1014.4 |
| 20260502161016 | 57 | 292 | 3.5 | 7.8 | 0.00 | 0.00 | 0.00 | 45 | 1014.5 |
| 20260502152016 | 54 | 313 | 2.6 | 7.0 | 0.00 | 0.00 | 0.00 | 51 | 1014.8 |
| 20260502151016 | 54 | 308 | 3.5 | 7.0 | 0.00 | 0.00 | 0.00 | 51 | 1014.8 |
| 20260502123015 | 50 | 307 | 1.7 | 4.3 | 0.00 | 0.00 | 0.00 | 54 | 1014.6 |
| 20260502122015 | 50 | 302 | 2.6 | 10.4 | 0.00 | 0.00 | 0.00 | 53 | 1014.5 |
| 20260502121016 | 50 | 301 | 1.7 | 5.2 | 0.00 | 0.00 | 0.00 | 53 | 1014.5 |
| 20260502115016 | 50 | 297 | 2.6 | 7.0 | 0.00 | 0.00 | 0.00 | 53 | 1014.1 |
| 20260502114016 | 50 | 308 | 3.5 | 7.0 | 0.00 | 0.00 | 0.00 | 53 | 1014.0 |
| 20260502113016 | 50 | 307 | 3.5 | 6.1 | 0.00 | 0.00 | 0.00 | 53 | 1013.7 |
| 20260502112017 | 50 | 305 | 4.3 | 9.6 | 0.00 | 0.00 | 0.00 | 55 | 1013.7 |
| 20260502111017 | 50 | 306 | 2.6 | 5.2 | 0.00 | 0.00 | 0.00 | 56 | 1013.7 |
| 20260502110017 | 50 | 305 | 1.7 | 3.5 | 0.00 | 0.00 | 0.00 | 56 | 1013.6 |
| 20260502105037 | 50 | 301 | 1.7 | 3.5 | 0.00 | 0.00 | 0.00 | 55 | 1013.7 |
| 20260502104038 | 50 | 303 | 2.6 | 5.2 | 0.00 | 0.00 | 0.00 | 54 | 1013.7 |
| 20260502103017 | 50 | 302 | 2.6 | 6.1 | 0.00 | 0.00 | 0.00 | 54 | 1013.7 |
| 20260502102017 | 50 | 306 | 3.5 | 6.1 | 0.00 | 0.00 | 0.00 | 54 | 1013.8 |
| 20260502101017 | 51 | 304 | 4.3 | 7.0 | 0.00 | 0.00 | 0.00 | 55 | 1013.9 |
| 20260502091018 | 51 | 301 | 1.7 | 2.6 | 0.00 | 0.00 | 0.00 | 65 | 1013.9 |
| 20260502071017 | 52 | 308 | 5.2 | 11.3 | 0.00 | 0.00 | 0.00 | 66 | 1013.0 |
| 20260502070017 | 52 | 303 | 3.5 | 7.8 | 0.00 | 0.00 | 0.00 | 66 | 1013.2 |
| 20260502065017 | 52 | 293 | 1.7 | 4.3 | 0.00 | 0.00 | 0.00 | 66 | 1013.3 |
| 20260502064017 | 53 | 301 | 1.7 | 3.5 | 0.00 | 0.00 | 0.00 | 65 | 1013.1 |
| 20260502063018 | 53 | 305 | 3.5 | 8.7 | 0.00 | 0.00 | 0.00 | 65 | 1013.2 |
| 20260502062019 | 53 | 301 | 3.5 | 7.8 | 0.00 | 0.00 | 0.00 | 65 | 1013.3 |
| 20260502061038 | 53 | 308 | 3.5 | 7.8 | 0.00 | 0.00 | 0.00 | 66 | 1013.4 |
| 20260502060101 | 54 | 308 | 3.5 | 7.0 | 0.00 | 0.00 | 0.00 | 66 | 1013.3 |
| 20260502055038 | 53 | 310 | 5.2 | 9.6 | 0.00 | 0.00 | 0.00 | 68 | 1013.4 |
| 20260502054018 | 54 | 309 | 2.6 | 5.2 | 0.00 | 0.00 | 0.00 | 68 | 1013.4 |
| 20260502053035 | 54 | 313 | 1.7 | 3.5 | 0.00 | 0.00 | 0.00 | 68 | 1013.5 |
| 20260502052015 | 55 | 314 | 1.7 | 3.5 | 0.00 | 0.00 | 0.00 | 67 | 1013.5 |
| 20260502051017 | 55 | 306 | 1.7 | 3.5 | 0.00 | 0.00 | 0.00 | 66 | 1013.5 |
| 20260502050017 | 55 | 305 | 2.6 | 5.2 | 0.00 | 0.00 | 0.00 | 66 | 1013.4 |
| 20260502045017 | 55 | 307 | 3.5 | 6.1 | 0.00 | 0.00 | 0.00 | 66 | 1013.3 |
| 20260502044017 | 55 | 306 | 3.5 | 7.0 | 0.00 | 0.00 | 0.00 | 66 | 1013.3 |
| 20260502043017 | 56 | 305 | 2.6 | 5.2 | 0.00 | 0.00 | 0.00 | 65 | 1013.3 |
| 20260502042018 | 57 | 304 | 2.6 | 4.3 | 0.00 | 0.00 | 0.00 | 64 | 1013.3 |
| 20260502041018 | 57 | 302 | 2.6 | 4.3 | 0.00 | 0.00 | 0.00 | 63 | 1013.3 |
| 20260502040018 | 58 | 303 | 2.6 | 5.2 | 0.00 | 0.00 | 0.00 | 63 | 1013.2 |
| 20260502035016 | 58 | 300 | 3.5 | 7.0 | 0.00 | 0.00 | 0.00 | 63 | 1013.2 |
| 20260502034016 | 57 | 301 | 2.6 | 7.0 | 0.00 | 0.00 | 0.00 | 64 | 1013.2 |
| 20260502033016 | 55 | 302 | 2.6 | 6.1 | 0.00 | 0.00 | 0.00 | 72 | 1013.1 |
| 20260502032016 | 55 | 189 | 0.9 | 1.7 | 0.00 | 0.00 | 0.00 | 79 | 1013.1 |
| 20260502031016 | 54 | 170 | 0.9 | 1.7 | 0.00 | 0.00 | 0.00 | 77 | 1012.9 |
| 20260502030017 | 54 | 57 | 0.9 | 2.6 | 0.00 | 0.00 | 0.00 | 79 | 1012.7 |
| 20260502025017 | 55 | 173 | 1.7 | 2.6 | 0.00 | 0.00 | 0.00 | 76 | 1012.8 |
| 20260502024037 | 55 | 303 | 0.9 | 2.6 | 0.00 | 0.00 | 0.00 | 76 | 1012.8 |
| 20260502023017 | 55 | 127 | 0.9 | 1.7 | 0.00 | 0.00 | 0.00 | 76 | 1012.3 |
| 20260502022017 | 55 | 118 | 1.7 | 1.7 | 0.00 | 0.00 | 0.00 | 76 | 1012.1 |
| 20260502021057 | 56 | 116 | 0.9 | 2.6 | 0.00 | 0.00 | 0.00 | 74 | 1011.8 |
| 20260502020037 | 57 | 116 | 1.7 | 2.6 | 0.00 | 0.00 | 0.00 | 71 | 1011.7 |
| 20260502015037 | 57 | 128 | 0.9 | 1.7 | 0.00 | 0.00 | 0.00 | 69 | 1011.7 |
| 20260502014018 | 57 | 92 | 0.0 | 0.9 | 0.00 | 0.00 | 0.00 | 67 | 1011.8 |
| 20260502013017 | 58 | 154 | 0.0 | 1.7 | 0.00 | 0.00 | 0.00 | 65 | 1011.7 |
| 20260502012021 | 58 | 133 | 0.0 | 0.9 | 0.00 | 0.00 | 0.00 | 64 | 1011.6 |
| 20260502011018 | 59 | 94 | 0.0 | 1.7 | 0.00 | 0.00 | 0.00 | 63 | 1011.6 |
| 20260502010018 | 59 | 117 | 0.9 | 1.7 | 0.00 | 0.00 | 0.00 | 62 | 1011.5 |
| 20260502005018 | 59 | 112 | 1.7 | 3.5 | 0.00 | 0.00 | 0.00 | 62 | 1011.1 |
| 20260502004016 | 59 | 101 | 0.9 | 2.6 | 0.00 | 0.00 | 0.00 | 61 | 1011.1 |
| 20260502003016 | 59 | 94 | 1.7 | 4.3 | 0.00 | 0.00 | 0.00 | 61 | 1010.9 |
| 20260502002016 | 59 | 110 | 0.9 | 1.7 | 0.00 | 0.00 | 0.00 | 60 | 1010.8 |
| 20260502001016 | 60 | 170 | 0.9 | 2.6 | 0.00 | 0.00 | 0.00 | 59 | 1010.6 |
| 20260502000016 | 61 | 222 | 0.9 | 2.6 | 0.00 | 0.00 | 0.00 | 57 | 1010.4 |
| 20260501235017 | 62 | 178 | 0.9 | 3.5 | 0.00 | 0.00 | 0.00 | 55 | 1010.3 |
| 20260501234047 | 63 | 215 | 0.9 | 2.6 | 0.00 | 0.00 | 0.00 | 54 | 1010.4 |
| 20260501233017 | 65 | 183 | 1.7 | 3.5 | 0.00 | 0.00 | 0.00 | 52 | 1010.4 |
| 20260501232017 | 65 | 230 | 0.9 | 2.6 | 0.00 | 0.00 | 0.00 | 52 | 1010.5 |
| 20260501231017 | 66 | 187 | 1.7 | 3.5 | 0.00 | 0.00 | 0.00 | 50 | 1010.4 |
| 20260501230017 | 66 | 196 | 1.7 | 3.5 | 0.00 | 0.00 | 0.00 | 50 | 1010.4 |
| 20260501225017 | 67 | 219 | 1.7 | 4.3 | 0.00 | 0.00 | 0.00 | 50 | 1010.4 |
| 20260501224017 | 67 | 191 | 1.7 | 4.3 | 0.00 | 0.00 | 0.00 | 49 | 1010.4 |
| 20260501223018 | 67 | 166 | 3.5 | 5.2 | 0.00 | 0.00 | 0.00 | 48 | 1010.4 |
| 20260501222017 | 68 | 181 | 2.6 | 5.2 | 0.00 | 0.00 | 0.00 | 47 | 1010.5 |
| 20260501221018 | 68 | 156 | 3.5 | 5.2 | 0.00 | 0.00 | 0.00 | 47 | 1010.5 |
| 20260501215018 | 69 | 174 | 2.6 | 6.1 | 0.00 | 0.00 | 0.00 | 45 | 1010.7 |
| 20260501214038 | 70 | 204 | 2.6 | 4.3 | 0.00 | 0.00 | 0.00 | 43 | 1010.7 |
| 20260501213018 | 70 | 209 | 2.6 | 4.3 | 0.00 | 0.00 | 0.00 | 43 | 1010.7 |
| 20260501212018 | 71 | 196 | 1.7 | 5.2 | 0.00 | 0.00 | 0.00 | 43 | 1010.8 |
| 20260501211016 | 71 | 201 | 2.6 | 5.2 | 0.00 | 0.00 | 0.00 | 43 | 1010.8 |